Погода в Вышнем Большом

Россия / Липецкая область     51°58′36″N   37°51′58″E
темп.,
°C
ветер,
м/с
пор.,
м/с
влажн.,
%
обл.,
%
осадки,
мм/ч
давл.,
гПа
погр.,
м
27 октября, ср
ср2700:00+2юз5145478 0.0 1028304
03:00+1юз51359100 0.0 1027292
06:00+1юз5146285 0.0 1025301
09:00+3юз615515 0.0 1024429
12:00+8юз812445 0.0 1023773
15:00+9юз711490 0.0 10211081
18:00+6зюз511705 0.0 1021328
21:00+6зюз51175100 0.0 1021445
28 октября, чт
чт2800:00+7зюз4974100 0.0 1021326
03:00+4зюз3789100 0.0 1021133
06:00+4юз41091100 0.0 1020277
09:00+6юз6138391 0.0 1019446
12:00+7зюз71588100 0.8 1018652
15:00+7з61191100 1.3 1017542
18:00+7з51192100 0.1 1018471
21:00+7з4109349 0.1 1019283
29 октября, пт
пт2900:00+8ссз510878 0.1 1021384
03:00+5ссз379697 0.1 1023163
06:00+7ссв4678100 0.0 1025175
09:00+6ссв3583100 0.0 1028219
12:00+8св226599 0.0 1029916
15:00+9всв11605 0.0 1029804
18:00+6св11745 0.0 103110
21:00+5ююв11805 0.0 103210
30 октября, сб
сб3000:00+4ююз22865 0.0 103217
03:00+3юз33895 0.0 103328
06:00+3юз22905 0.0 103324
09:00+5юз24845 0.0 1034110
12:00+10ююз34625 0.0 1034502
15:00+11ююз34545 0.0 1033687
18:00+7ююз33715 0.0 103325
21:00+6ююз33785 0.0 103336
31 октября, вс
вс3100:00+5ююз33825 0.0 103435
03:00+4ююз33845 0.0 103426
06:00+3ююз33855 0.0 103325
09:00+5ю23750 0.0 1033109
12:00+10ю35530 0.0 1032465
15:00+11ю35470 0.0 1030663
18:00+7ююв33640 0.0 103026
21:00+6ююв34760 0.0 103059